Time,TemperatureF,DewpointF,PressureIn,WindDirection,WindDirectionDegrees,WindSpeedMPH,WindSpeedGustMPH,Humidity,HourlyPrecipIn,Conditions,Clouds,dailyrainin,SoftwareType,DateUTC
2013-01-24 00:00:00,20.2,13.2,30.14,North,0,0.0,0.0,74,0.00,,,0.00,WUHU216HW,2013-01-24 07:00:00,
2013-01-24 00:05:00,20.2,13.2,30.14,North,0,0.0,0.0,74,0.00,,,0.00,WUHU216HW,2013-01-24 07:05:00,
2013-01-24 00:30:00,20.2,13.4,30.15,East,90,1.1,1.1,75,0.00,,,0.00,WUHU216HW,2013-01-24 07:30:00,
2013-01-24 00:35:00,20.2,13.4,30.15,East,90,1.1,1.1,75,0.00,,,0.00,WUHU216HW,2013-01-24 07:35:00,
2013-01-24 01:00:00,19.1,12.3,30.14,WNW,293,0.7,0.7,75,0.00,,,0.00,WUHU216HW,2013-01-24 08:00:00,
2013-01-24 01:05:00,19.1,12.3,30.14,WNW,293,0.7,0.7,75,0.00,,,0.00,WUHU216HW,2013-01-24 08:05:00,
2013-01-24 01:30:00,17.6,10.7,30.13,NNE,23,0.9,0.9,74,0.00,,,0.00,WUHU216HW,2013-01-24 08:30:00,
2013-01-24 01:35:00,17.6,10.7,30.13,NNE,23,0.9,0.9,74,0.00,,,0.00,WUHU216HW,2013-01-24 08:35:00,
2013-01-24 02:00:00,16.7,9.6,30.12,WSW,248,0.0,0.0,73,0.00,,,0.00,WUHU216HW,2013-01-24 09:00:00,
2013-01-24 02:05:00,16.7,9.6,30.12,WSW,248,0.0,0.0,73,0.00,,,0.00,WUHU216HW,2013-01-24 09:05:00,
2013-01-24 02:30:00,14.8,7.4,30.13,North,0,0.0,0.0,72,0.00,,,0.00,WUHU216HW,2013-01-24 09:30:00,
2013-01-24 02:35:00,14.8,7.4,30.13,North,0,0.0,0.0,72,0.00,,,0.00,WUHU216HW,2013-01-24 09:35:00,
2013-01-24 03:00:00,13.5,6.8,30.13,North,0,0.0,0.0,74,0.00,,,0.00,WUHU216HW,2013-01-24 10:00:00,
2013-01-24 03:05:00,13.5,6.8,30.13,North,0,0.0,0.0,74,0.00,,,0.00,WUHU216HW,2013-01-24 10:05:00,
2013-01-24 03:30:00,13.3,7.1,30.12,NW,315,0.0,0.0,76,0.00,,,0.00,WUHU216HW,2013-01-24 10:30:00,
2013-01-24 03:35:00,13.3,7.1,30.12,NW,315,0.0,0.0,76,0.00,,,0.00,WUHU216HW,2013-01-24 10:35:00,
2013-01-24 04:00:00,12.8,6.6,30.12,NE,45,2.2,2.2,76,0.00,,,0.00,WUHU216HW,2013-01-24 11:00:00,
2013-01-24 04:05:00,12.8,6.6,30.12,NE,45,2.2,2.2,76,0.00,,,0.00,WUHU216HW,2013-01-24 11:05:00,
2013-01-24 04:30:00,12.8,7.2,30.13,WSW,248,4.0,4.0,78,0.00,,,0.00,WUHU216HW,2013-01-24 11:30:00,
2013-01-24 04:35:00,12.8,7.2,30.13,WSW,248,4.0,4.0,78,0.00,,,0.00,WUHU216HW,2013-01-24 11:35:00,
2013-01-24 05:00:00,13.5,7.6,30.13,South,180,1.1,1.1,77,0.00,,,0.00,WUHU216HW,2013-01-24 12:00:00,
2013-01-24 05:05:00,13.5,7.6,30.13,South,180,1.1,1.1,77,0.00,,,0.00,WUHU216HW,2013-01-24 12:05:00,
2013-01-24 05:30:00,13.3,7.4,30.12,ENE,68,0.4,0.4,77,0.00,,,0.00,WUHU216HW,2013-01-24 12:30:00,
2013-01-24 05:35:00,13.3,7.4,30.12,ENE,68,0.4,0.4,77,0.00,,,0.00,WUHU216HW,2013-01-24 12:35:00,
2013-01-24 06:00:00,13.5,7.9,30.12,ESE,113,0.7,1.8,78,0.00,,,0.00,WUHU216HW,2013-01-24 13:00:00,
2013-01-24 06:05:00,13.5,7.9,30.12,ESE,113,0.7,1.8,78,0.00,,,0.00,WUHU216HW,2013-01-24 13:05:00,
2013-01-24 06:30:00,13.3,7.8,30.11,NNE,23,0.7,0.7,78,0.00,,,0.00,WUHU216HW,2013-01-24 13:30:00,
2013-01-24 06:35:00,13.3,7.8,30.11,NNE,23,0.7,0.7,78,0.00,,,0.00,WUHU216HW,2013-01-24 13:35:00,
2013-01-24 07:00:00,14.0,8.7,30.14,ESE,113,0.0,0.0,79,0.00,,,0.00,WUHU216HW,2013-01-24 14:00:00,
2013-01-24 07:05:00,14.0,8.7,30.14,ESE,113,0.0,0.0,79,0.00,,,0.00,WUHU216HW,2013-01-24 14:05:00,
2013-01-24 07:30:00,13.7,8.4,30.13,SSE,158,5.6,5.6,79,0.00,,,0.00,WUHU216HW,2013-01-24 14:30:00,
2013-01-24 07:35:00,13.7,8.4,30.13,SSE,158,5.6,5.6,79,0.00,,,0.00,WUHU216HW,2013-01-24 14:35:00,